Date,TemperatureHighF,TemperatureAvgF,TemperatureLowF,DewpointHighF,DewpointAvgF,DewpointLowF,HumidityHigh,HumidityAvg,HumidityLow,PressureMaxIn,PressureMinIn,WindSpeedMaxMPH,WindSpeedAvgMPH,GustSpeedMaxMPH,PrecipitationSumIn
2013-1-1,32,28,18,31,25,14,97,91,83,30.18,30.02,1,0,5,0.02
2013-1-2,27,18,10,14,10,5,91,73,41,30.28,30.16,3,0,6,0.02
2013-1-3,34,25,17,27,17,4,84,71,53,30.31,30.19,5,2,13,0.01
2013-1-4,33,28,23,25,21,19,92,77,63,30.36,30.30,8,4,20,0.01
2013-1-5,39,31,25,32,26,22,93,83,60,30.32,30.11,8,3,16,0.06
2013-1-6,37,32,26,33,28,22,92,84,78,30.36,29.99,7,3,22,0.02
2013-1-7,40,29,21,29,24,19,100,82,60,30.44,30.20,7,1,15,0.03
2013-1-8,47,37,30,33,29,26,84,73,55,30.26,30.16,6,1,12,0.00
2013-1-9,51,44,39,43,38,31,97,78,57,30.47,30.14,7,2,18,0.12
2013-1-10,46,40,37,45,35,28,97,83,65,30.47,29.98,5,2,12,0.09
2013-1-11,59,54,46,54,50,45,98,89,73,29.98,29.79,10,3,21,0.95
2013-1-12,65,58,54,59,54,49,98,88,70,29.93,29.63,6,2,16,1.06
2013-1-13,62,37,23,62,36,21,99,96,89,30.20,29.55,7,1,17,1.13
2013-1-14,24,22,18,21,19,15,92,88,82,30.45,30.20,3,1,11,0.00
2013-1-15,31,26,20,25,22,18,91,83,71,30.39,30.08,4,1,10,0.00
2013-1-16,34,30,26,25,24,22,91,80,61,30.08,29.97,5,2,12,0.00
2013-1-17,42,33,25,34,26,18,87,77,60,30.41,30.07,4,1,14,0.00
2013-1-18,41,31,22,27,21,17,92,68,44,30.50,30.14,9,3,20,0.00
2013-1-19,54,46,40,39,32,24,73,57,48,30.14,29.84,13,9,29,0.00
2013-1-20,47,30,23,38,19,12,78,63,47,30.25,29.90,8,3,26,0.00
2013-1-21,24,18,11,17,8,-1,82,65,48,30.30,30.14,8,4,25,0.00
2013-1-22,19,12,6,3,1,-1,75,61,44,30.42,30.29,6,2,19,0.00
2013-1-23,24,18,10,15,7,2,75,64,56,30.37,30.11,3,1,10,0.00
2013-1-24,24,20,13,15,8,1,82,60,38,30.59,30.16,5,2,11,0.00
2013-1-25,28,24,19,21,16,6,96,71,49,30.38,30.04,5,2,14,0.01
2013-1-26,34,25,17,21,18,14,92,75,56,30.41,30.10,4,0,9,0.03
2013-1-27,41,29,22,40,25,17,97,84,68,30.39,30.04,4,2,9,0.22
2013-1-28,56,50,41,56,49,40,99,96,90,30.07,29.93,9,5,20,0.38
2013-1-29,65,59,54,60,57,53,99,91,83,29.94,29.36,11,6,25,0.00
2013-1-30,66,46,27,61,44,23,98,92,76,29.62,29.22,10,5,26,1.07
2013-1-31,30,24,12,24,18,6,92,78,65,30.14,29.62,10,5,30,0.00
2013-2-1,18,12,7,11,5,1,80,74,63,30.44,30.14,7,3,22,0.00
2013-2-2,30,24,17,26,20,11,93,85,73,30.30,30.00,6,2,18,0.01
2013-2-3,26,20,13,23,16,10,92,86,77,30.11,29.97,5,1,15,0.00
2013-2-4,40,30,21,34,24,15,94,80,63,30.10,29.77,6,1,17,0.03
2013-2-5,39,32,24,34,28,22,92,85,75,30.02,29.82,7,1,15,0.00
2013-2-6,37,32,29,31,27,25,89,83,72,30.25,30.02,2,0,11,0.00
2013-2-7,57,42,31,45,35,28,96,77,46,30.17,29.77,2,0,12,0.15
2013-2-8,44,34,32,43,31,26,96,88,79,30.34,29.78,4,1,17,0.00
2013-2-9,42,34,26,30,26,22,92,74,59,30.40,30.13,3,1,10,0.00
2013-2-10,52,44,35,50,37,24,94,78,61,30.13,29.66,7,2,19,0.14
2013-2-11,53,42,35,50,34,27,94,71,57,30.03,29.65,13,6,29,0.00
2013-2-12,47,36,26,32,28,24,92,76,46,30.13,29.90,5,1,15,0.00
2013-2-13,46,35,29,32,28,26,92,75,45,29.90,29.76,5,1,15,0.00
2013-2-14,50,40,35,39,34,29,93,80,59,29.98,29.78,9,4,21,0.00
2013-2-15,37,32,24,32,27,19,90,80,66,30.16,29.96,6,1,20,0.03
2013-2-16,28,24,21,20,16,12,85,73,54,30.14,30.09,5,1,17,0.00
2013-2-17,36,24,12,18,11,4,86,61,27,30.24,30.13,3,0,11,0.01
2013-2-18,59,42,27,44,31,15,91,66,44,30.13,29.54,14,5,33,0.32
2013-2-19,46,28,22,45,22,13,94,77,65,30.15,29.53,11,5,29,0.12
2013-2-20,28,22,13,18,13,7,81,69,55,30.33,30.15,4,0,16,0.00
2013-2-21,31,25,18,28,21,14,94,83,72,30.34,29.98,7,1,17,0.00
2013-2-22,37,34,30,34,32,27,97,92,83,29.98,29.81,6,1,18,0.22
2013-2-23,39,31,25,27,24,21,88,76,59,29.99,29.91,3,1,12,0.10
2013-2-24,43,32,21,30,25,20,95,78,58,30.12,29.97,2,0,7,0.05
2013-2-25,45,36,29,31,28,24,84,71,56,30.13,29.83,5,1,14,0.00
2013-2-26,43,39,34,42,36,28,98,90,68,29.83,29.34,3,1,25,1.19
2013-2-27,41,35,32,40,33,30,97,94,89,29.70,29.45,6,1,22,0.02
2013-2-28,37,34,32,34,32,30,100,93,87,29.98,29.68,3,0,16,0.12
2013-3-1,34,32,31,32,30,28,96,92,88,30.05,29.94,0,0,5,0.03
2013-3-2,31,29,27,28,25,21,90,83,69,30.10,30.03,1,0,9,0.01
2013-3-3,37,29,22,25,21,19,91,75,53,30.12,30.04,3,0,11,0.01
2013-3-4,38,33,25,29,23,19,83,69,51,30.11,29.92,4,0,13,0.00
2013-3-5,38,35,30,36,32,28,97,89,68,29.92,29.63,4,1,13,0.19
2013-3-6,31,29,28,29,28,27,97,96,95,30.15,29.74,0,0,0,0.00
2013-3-7,35,32,31,29,27,26,82,81,81,30.38,30.37,0,0,0,0.15
2013-3-8,43,35,28,32,28,24,92,75,59,30.46,30.33,1,0,6,0.14
2013-3-9,56,44,32,37,32,27,84,64,41,30.33,29.91,1,0,9,0.00
2013-3-10,66,59,53,46,39,35,66,48,33,29.91,29.67,7,2,18,0.02
2013-3-11,60,46,34,51,42,31,97,88,57,29.86,29.56,9,2,20,0.13
2013-3-12,44,36,32,33,29,26,96,77,53,30.03,29.86,7,2,23,0.02
2013-3-13,34,29,26,30,23,19,89,77,67,30.33,30.01,5,2,23,0.00
2013-3-14,43,32,23,32,23,17,95,74,39,30.35,30.16,2,0,13,0.00
2013-3-15,51,41,30,42,35,29,96,83,64,30.16,29.69,2,0,10,0.02
2013-3-16,53,45,36,50,40,31,92,85,78,30.01,29.54,3,0,15,0.16
2013-3-17,37,34,32,32,29,26,92,82,77,30.11,29.92,3,0,14,0.00
2013-3-18,43,37,33,42,36,32,100,95,90,29.92,29.58,7,1,20,0.62
2013-3-19,42,34,26,36,21,16,93,61,38,30.11,29.82,10,4,25,0.00
2013-3-20,34,29,25,22,17,10,74,59,46,30.11,30.01,8,2,26,0.00
2013-3-21,35,26,18,16,14,10,82,61,42,30.06,29.98,2,0,14,0.00
2013-3-22,46,34,24,23,18,13,75,52,35,30.06,29.95,1,0,4,0.00
2013-3-23,49,40,36,26,23,20,62,51,35,30.04,29.97,1,0,6,0.00
2013-3-24,39,34,29,32,30,28,96,88,76,29.74,29.41,7,1,21,0.00
2013-3-25,34,31,28,32,30,27,96,93,90,29.99,29.47,3,0,15,0.16
2013-3-26,40,34,29,31,28,24,93,79,55,30.24,29.99,3,0,14,0.27
2013-3-27,43,35,28,33,27,22,92,73,49,30.32,30.24,3,0,13,0.01
2013-3-28,50,39,28,31,27,22,84,64,45,30.35,30.26,2,0,11,0.00
2013-3-29,57,44,34,36,32,27,81,61,42,30.29,30.17,1,0,4,0.00
2013-3-30,60,50,39,37,34,31,77,56,37,30.20,29.88,4,0,13,0.00
2013-3-31,61,51,46,46,42,35,94,73,44,29.88,29.72,6,2,18,0.06
2013-4-1,49,41,33,44,27,17,85,59,33,30.14,29.80,4,1,21,0.00
2013-4-2,46,36,26,23,19,15,82,54,30,30.27,30.13,3,0,15,0.00
2013-4-3,48,40,30,22,18,13,54,42,29,30.39,30.25,4,1,13,0.00
2013-4-4,59,45,34,26,22,16,62,41,22,30.30,29.96,3,0,11,0.00
2013-4-5,60,51,41,36,27,17,57,41,30,30.09,29.94,3,0,12,0.00
2013-4-6,72,56,43,41,33,25,62,44,29,30.09,29.77,10,2,19,0.00
2013-4-7,75,66,59,52,44,39,71,47,34,29.88,29.73,11,3,29,0.00
2013-4-8,72,64,56,59,55,52,94,75,60,29.89,29.77,11,3,26,0.02
2013-4-9,79,70,59,62,58,54,82,67,46,29.93,29.81,12,4,24,0.00
2013-4-10,81,72,61,67,63,58,93,75,61,29.84,29.66,10,4,23,0.01
2013-4-11,66,60,48,61,58,47,97,94,81,29.70,29.49,7,2,21,0.92
2013-4-12,45,42,38,36,34,31,80,72,64,29.90,29.65,9,4,20,0.01
2013-4-13,53,46,40,39,36,33,81,68,50,29.98,29.90,9,2,23,0.00
2013-4-14,74,57,42,47,42,36,92,60,30,29.98,29.75,4,1,14,0.01
2013-4-15,72,63,58,57,52,46,76,69,53,29.90,29.77,6,2,22,0.00
2013-4-16,65,56,49,58,53,48,97,88,74,30.13,29.82,6,1,13,1.23
2013-4-17,76,59,49,69,57,49,98,92,75,30.13,29.82,4,1,12,0.24
2013-4-18,78,69,55,66,62,53,98,82,59,29.82,29.50,11,3,27,1.39
2013-4-19,54,41,38,53,36,30,96,82,69,29.96,29.51,9,4,29,0.67
2013-4-20,50,40,32,34,30,28,88,68,44,30.37,29.96,3,1,16,0.00
2013-4-21,56,44,34,35,30,25,76,58,39,30.49,30.32,3,1,12,0.00
2013-4-22,69,55,41,44,36,29,65,50,30,30.32,30.03,3,0,12,0.00
2013-4-23,66,59,54,58,50,40,96,74,54,30.05,29.72,5,1,16,0.44
2013-4-24,58,44,38,57,40,33,97,86,60,30.20,29.74,3,1,15,0.88
2013-4-25,55,46,36,41,34,29,89,66,39,30.34,30.19,8,2,25,0.00
2013-4-26,64,52,40,42,36,31,77,56,37,30.39,30.26,2,0,7,0.00
2013-4-27,62,54,48,53,44,35,96,70,49,30.29,29.94,3,0,15,0.07
2013-4-28,62,56,54,59,55,53,98,96,87,29.94,29.79,5,1,13,0.30
2013-4-29,70,60,54,58,54,53,98,84,56,29.95,29.84,3,0,10,0.01
2013-4-30,83,66,52,63,56,50,95,71,45,29.96,29.86,4,1,12,0.00
2013-5-1,82,72,61,60,56,53,81,59,39,30.07,29.95,3,0,12,0.00
2013-5-2,78,70,62,58,57,53,81,63,45,30.10,29.97,4,1,13,0.00
2013-5-3,75,66,61,63,59,56,95,77,57,29.99,29.82,3,0,13,0.09
2013-5-4,65,59,55,59,52,45,95,77,56,29.96,29.84,2,0,13,0.04
2013-5-5,56,54,52,55,53,51,100,96,91,29.96,29.87,2,0,12,0.25
2013-5-6,65,58,52,58,55,51,100,89,76,29.92,29.83,2,0,7,0.25
2013-5-7,72,64,57,58,56,54,93,76,55,29.93,29.87,1,0,7,0.05
2013-5-8,78,67,58,61,58,56,98,74,47,29.96,29.89,2,0,11,0.00
2013-5-9,78,66,59,64,59,53,98,80,44,29.95,29.80,4,0,12,0.76
2013-5-10,68,62,50,63,60,48,98,95,81,29.87,29.74,2,0,13,0.23
2013-5-11,64,52,46,54,45,34,96,81,45,29.99,29.83,5,1,27,0.00
2013-5-12,56,47,37,37,34,30,90,62,37,30.10,29.99,3,1,18,0.00
2013-5-13,65,53,39,39,34,29,82,51,28,30.16,30.06,4,1,16,0.00
2013-5-14,83,66,50,62,50,36,71,57,45,30.07,29.75,7,2,22,0.00
2013-5-15,86,77,68,65,61,58,73,60,45,29.82,29.74,6,3,19,0.00
2013-5-16,78,72,65,68,63,59,92,75,52,29.89,29.75,5,1,16,0.00
2013-5-17,78,68,62,68,63,60,97,86,64,29.97,29.89,3,0,9,1.34
2013-5-18,78,69,63,68,65,62,98,88,67,29.99,29.88,1,0,6,0.01
2013-5-19,85,74,63,70,66,62,99,81,55,29.91,29.77,2,0,7,0.00
2013-5-20,83,76,70,72,70,68,98,82,63,29.87,29.75,5,1,17,0.00
2013-5-21,75,72,68,69,67,63,90,82,74,29.78,29.71,3,1,16,0.55
2013-5-22,74,68,62,66,64,60,97,88,71,29.73,29.65,5,1,17,0.06
2013-5-23,64,58,49,60,55,45,97,90,80,30.11,29.73,3,0,14,0.09
2013-5-24,68,54,43,47,43,38,95,69,37,30.32,30.11,1,0,10,0.00
2013-5-25,65,55,46,53,46,38,93,71,43,30.33,30.17,1,0,7,0.06
2013-5-26,66,58,51,59,53,49,96,85,65,30.25,30.09,1,0,9,0.09
2013-5-27,80,66,57,69,61,56,98,86,62,30.11,29.80,5,1,14,0.48
2013-5-28,81,72,63,70,66,62,97,83,66,29.90,29.81,7,1,22,0.00
2013-5-29,85,77,71,68,64,60,79,65,48,29.96,29.86,5,1,18,0.00
2013-5-30,84,77,71,71,68,64,81,74,63,29.98,29.86,5,1,16,0.00
2013-5-31,77,71,64,71,68,63,98,90,76,29.94,29.78,3,1,15,1.03
2013-6-1,75,69,64,70,66,63,98,91,80,29.83,29.71,4,1,20,0.82
2013-6-2,71,65,59,65,61,55,97,87,72,29.92,29.75,3,0,14,0.00
2013-6-3,69,59,48,55,51,46,93,76,55,30.03,29.92,1,0,5,0.00
2013-6-4,75,63,52,56,50,46,90,66,44,30.08,29.98,2,0,12,0.00
2013-6-14,81,75,67,66,62,58,75,64,48,30.01,29.94,1,0,5,0.00
2013-6-15,83,72,62,69,63,58,91,73,52,30.04,29.87,3,0,14,0.00
2013-6-16,77,71,66,70,67,63,96,87,69,29.94,29.86,6,0,29,0.03
2013-6-17,86,74,67,73,68,63,99,83,49,29.91,29.80,3,0,12,0.01
2013-6-18,87,73,65,70,65,63,95,78,50,29.91,29.80,1,0,11,0.00
2013-6-19,82,71,62,67,62,59,94,75,53,30.03,29.91,1,0,7,0.00
2013-6-20,87,74,64,68,63,59,89,70,41,30.11,30.03,2,0,10,0.00
2013-6-21,88,77,65,74,66,61,88,71,48,30.11,29.96,3,0,10,0.00
2013-6-22,86,73,68,75,69,66,98,88,68,30.06,29.97,3,0,14,0.48
2013-6-23,84,72,65,75,69,64,99,93,71,30.05,29.97,3,0,33,0.89
2013-6-24,85,75,69,75,71,68,98,88,65,30.06,29.94,2,0,12,0.00
2013-6-25,88,77,68,78,72,66,97,87,65,29.95,29.80,5,0,16,0.33
2013-6-26,81,70,65,76,69,65,99,95,82,29.87,29.67,3,0,16,0.47
2013-6-27,88,77,68,76,71,67,100,85,61,29.72,29.63,3,0,14,0.02
2013-6-28,84,76,66,70,66,58,92,73,44,29.65,29.53,5,1,21,0.00
2013-6-29,76,68,63,69,65,62,98,92,72,29.60,29.51,1,0,10,0.08
2013-6-30,77,67,64,68,65,63,98,93,70,29.80,29.60,1,0,9,0.99
2013-7-1,70,66,64,69,64,62,98,95,85,29.88,29.78,0,0,9,0.70
2013-7-2,76,67,62,71,65,61,98,94,80,29.95,29.86,1,0,7,0.05
2013-7-3,79,68,62,69,65,62,99,89,65,30.03,29.92,3,0,12,0.02
2013-7-4,76,70,64,70,67,63,99,91,79,30.07,29.99,0,0,4,0.00
2013-7-5,80,72,65,71,68,64,99,88,71,30.07,29.98,1,0,5,0.00
2013-7-6,73,70,67,69,68,65,98,94,84,30.04,29.96,1,0,6,0.08
2013-7-7,84,73,65,73,68,64,99,86,63,30.03,29.94,2,0,7,0.01
2013-7-8,85,77,69,77,72,68,95,84,70,30.04,29.95,3,0,12,0.00
2013-7-9,87,79,74,80,75,72,98,88,73,29.98,29.88,3,0,20,0.26
2013-7-10,82,76,68,78,73,66,97,91,70,29.91,29.74,4,0,19,0.55
2013-7-11,80,70,62,71,62,57,97,76,50,29.97,29.87,1,0,9,0.00
2013-7-12,82,70,60,65,60,57,92,72,47,30.05,29.97,1,0,9,0.00
2013-7-13,83,72,63,69,64,59,94,77,56,30.05,29.99,1,0,10,0.00
2013-7-14,88,78,68,75,70,66,94,78,61,30.11,30.03,1,0,6,0.00
2013-7-15,88,79,72,76,73,71,98,83,63,30.21,30.10,1,0,12,0.02
2013-7-16,91,82,73,77,73,70,91,76,53,30.25,30.18,1,0,5,0.00
2013-7-17,93,83,74,78,74,72,93,76,55,30.26,30.11,1,0,4,0.00
2013-7-18,92,83,74,78,74,71,94,76,53,30.13,29.94,1,0,7,0.00
2013-7-19,90,82,75,78,75,73,96,81,63,29.96,29.80,3,0,15,0.00
2013-7-20,83,74,68,75,70,67,98,90,76,29.86,29.77,2,0,13,0.63
2013-7-21,82,74,66,75,70,65,99,89,69,29.90,29.80,0,0,3,0.00
2013-7-22,82,73,67,75,70,67,99,92,75,29.82,29.70,3,0,16,0.48
2013-7-23,87,76,68,78,71,61,98,84,56,29.81,29.67,3,0,14,0.00
2013-7-24,77,66,57,62,58,55,93,75,54,29.95,29.80,1,0,7,0.00
2013-7-25,80,67,56,63,58,54,94,73,47,30.03,29.94,1,0,5,0.00
2013-7-26,78,69,60,67,61,57,92,78,55,30.02,29.87,1,0,9,0.00
2013-7-27,76,68,58,65,61,53,98,80,56,29.89,29.79,3,1,15,0.15
2013-7-28,72,62,52,59,54,49,93,76,53,29.99,29.88,3,0,13,0.00
2013-7-29,78,67,57,62,58,54,93,74,52,30.12,29.99,2,0,10,0.00
2013-7-30,74,67,62,68,63,57,97,87,74,30.14,30.03,0,0,1,0.08
2013-7-31,76,69,64,72,67,64,99,95,84,30.03,29.87,0,0,3,0.25
2013-8-1,81,72,64,69,64,58,99,80,48,29.95,29.89,2,0,16,0.01
2013-8-2,81,70,61,70,64,58,92,82,64,29.94,29.87,3,0,15,0.00
2013-8-3,82,73,66,72,67,58,98,83,59,30.00,29.87,0,0,6,0.65
2013-8-4,79,68,58,62,58,54,89,71,45,30.10,30.00,0,0,6,0.00
2013-8-5,80,69,60,67,61,56,90,75,50,30.05,29.87,1,0,10,0.00
2013-8-6,80,72,66,74,68,63,96,88,81,29.88,29.82,1,0,6,0.00
2013-8-7,83,76,70,77,73,70,99,92,76,29.85,29.78,1,0,10,0.00
2013-8-8,85,76,71,76,73,70,98,92,69,29.88,29.81,1,0,7,0.43
2013-8-9,84,74,70,72,70,66,99,87,58,29.97,29.83,0,0,5,0.03
2013-8-10,85,76,68,72,68,64,92,78,55,30.04,29.96,1,0,5,0.00
2013-8-11,84,75,67,70,67,64,97,77,55,30.04,29.98,1,0,8,0.00
2013-8-12,83,73,66,72,68,64,96,83,63,30.01,29.82,1,0,6,0.00
2013-8-13,76,69,56,68,62,51,98,81,60,30.04,29.79,1,0,13,0.00
2013-8-14,73,61,50,55,51,48,96,74,47,30.14,30.04,0,0,10,0.00
2013-8-15,72,62,53,59,54,51,93,75,53,30.13,30.04,0,0,4,0.00
2013-8-16,76,66,58,60,56,53,88,73,50,30.11,30.05,1,0,6,0.00
2013-8-17,81,69,60,64,59,56,88,72,51,30.13,30.05,0,0,5,0.00
2013-8-18,83,72,62,66,62,58,95,73,46,30.12,30.02,0,0,4,0.00
2013-8-19,84,74,63,70,62,58,90,69,49,30.07,29.98,1,0,4,0.00
2013-8-20,87,75,66,71,66,62,90,76,53,30.08,29.99,1,0,6,0.00
2013-8-21,88,76,68,74,70,66,98,82,53,30.07,29.97,0,0,5,0.00
2013-8-22,86,76,69,74,69,67,93,82,62,30.02,29.94,1,0,11,0.01
2013-8-23,85,75,66,70,67,64,96,78,56,30.06,29.97,0,0,7,0.00
2013-8-24,87,74,63,66,61,56,90,66,37,30.19,30.06,1,0,5,0.00
2013-8-25,88,75,64,67,61,57,88,64,37,30.24,30.14,1,0,10,0.00
2013-8-26,87,77,69,76,70,60,96,79,61,30.16,30.00,2,0,10,0.00
2013-8-27,90,79,72,78,73,70,97,84,60,30.01,29.89,2,0,12,0.00
2013-8-28,93,82,74,76,73,71,92,76,55,29.90,29.83,3,1,20,0.00
2013-8-29,90,79,71,74,71,68,98,79,50,29.97,29.89,0,0,6,0.00
2013-8-30,92,80,69,76,72,68,97,78,54,29.91,29.74,1,0,7,0.00
2013-8-31,94,78,69,79,73,68,98,85,54,29.77,29.64,4,0,12,0.56
2013-9-1,84,74,67,75,70,66,99,90,73,29.75,29.65,1,0,12,0.01
2013-9-2,84,74,68,73,68,62,99,84,54,29.85,29.70,1,0,5,0.00
2013-9-3,77,67,56,62,57,53,91,73,51,30.01,29.85,1,0,7,0.00
2013-9-4,81,69,58,64,59,55,94,73,49,30.09,29.99,1,0,7,0.00
2013-9-5,86,74,64,68,63,60,90,71,46,30.12,30.06,1,0,4,0.00
2013-9-6,85,72,60,68,61,53,87,70,51,30.16,30.01,0,0,5,0.00
2013-9-7,86,74,64,70,66,60,88,76,54,30.01,29.88,2,0,15,0.00
2013-9-8,85,75,69,77,71,67,97,88,70,29.91,29.84,0,0,2,0.28
2013-9-9,91,78,68,76,72,67,98,82,59,29.93,29.84,3,0,13,0.00
2013-9-10,94,80,71,77,74,70,97,82,49,30.04,29.90,4,0,13,0.15
2013-9-11,92,80,72,76,71,65,97,77,43,30.06,29.93,2,0,9,0.00
2013-9-12,81,74,65,72,68,54,97,83,52,29.95,29.82,2,0,11,0.14
2013-9-13,69,61,53,56,51,46,94,70,47,30.05,29.92,1,0,10,0.00
2013-9-14,73,58,47,51,47,43,90,68,39,30.15,30.03,1,0,6,0.00
2013-9-15,76,63,50,58,52,46,87,68,47,30.07,29.95,2,0,12,0.00
2013-9-16,70,63,56,59,56,52,90,80,65,30.22,29.98,1,0,7,0.00
2013-9-17,76,62,52,58,54,50,94,75,47,30.26,30.08,1,0,10,0.00
2013-9-18,80,68,59,69,62,55,95,81,64,30.08,29.96,1,0,6,0.00
2013-9-19,80,71,65,74,69,64,99,93,78,30.02,29.86,2,0,12,1.65
2013-9-20,77,71,67,71,69,66,98,93,82,29.89,29.73,2,0,10,0.37
2013-9-21,71,62,54,66,55,50,98,81,48,29.85,29.71,1,0,12,0.03
2013-9-22,70,58,49,54,51,48,96,77,51,29.97,29.85,0,0,5,0.00
2013-9-23,72,59,48,53,50,46,96,74,47,30.05,29.95,1,0,6,0.00
2013-9-24,78,62,49,63,55,47,95,79,55,30.00,29.83,1,0,6,0.00
2013-9-25,80,67,57,64,59,52,92,76,51,29.87,29.78,0,0,5,0.00
2013-9-26,80,65,53,60,55,51,93,71,45,30.00,29.86,1,0,5,0.00
2013-9-27,82,67,54,61,56,51,92,70,41,30.10,30.00,0,0,4,0.00
2013-9-28,81,68,56,64,59,54,94,74,51,30.09,29.95,1,0,12,0.00
2013-9-29,66,63,61,63,61,58,99,93,79,29.97,29.92,2,0,12,0.60
2013-9-30,70,64,61,66,63,61,99,95,84,29.95,29.88,1,0,7,0.03
2013-10-1,78,66,61,68,64,60,99,92,69,30.01,29.92,1,0,9,0.01
2013-10-2,77,69,66,70,67,64,99,94,78,30.03,29.95,0,0,3,0.01
2013-10-3,82,72,66,70,68,65,99,88,63,29.99,29.88,3,0,11,0.02
2013-10-4,81,71,66,74,69,65,99,93,78,30.00,29.92,1,0,9,0.11
2013-10-5,72,69,65,71,69,64,99,98,92,29.95,29.82,2,0,14,0.91
2013-10-6,66,59,47,66,57,43,100,94,73,29.82,29.68,3,0,20,1.27
2013-10-7,62,52,46,53,47,44,94,84,65,30.10,29.76,4,1,15,0.01
2013-10-8,70,57,48,55,50,47,97,77,47,30.20,30.10,1,0,5,0.00
2013-10-9,74,59,47,57,51,45,95,76,50,30.18,30.08,1,0,6,0.00
2013-10-10,76,62,51,60,54,49,93,76,52,30.18,30.00,0,0,2,0.00
2013-10-11,77,63,50,60,53,49,96,73,40,30.05,29.95,0,0,4,0.00
2013-10-12,78,66,54,65,58,50,90,76,55,30.05,29.96,1,0,9,0.00
2013-10-13,73,62,54,62,50,41,91,65,36,30.28,30.05,0,0,7,0.00
2013-10-14,71,56,45,53,46,43,92,71,43,30.30,30.11,1,0,6,0.00
2013-10-15,65,60,53,63,57,48,98,91,76,30.11,29.85,1,0,10,0.04
2013-10-16,64,56,45,63,51,43,98,83,60,29.94,29.82,2,0,11,0.02
2013-10-17,55,47,42,49,45,41,98,91,72,29.93,29.85,1,0,9,0.09
2013-10-18,65,52,44,51,46,43,97,81,53,29.96,29.86,3,0,14,0.01
2013-10-19,53,46,42,44,41,36,97,85,55,29.95,29.82,2,0,14,0.31
2013-10-20,63,50,40,46,42,38,92,75,50,29.96,29.88,4,0,19,0.00
2013-10-21,60,51,42,49,44,32,90,79,67,29.97,29.85,2,0,12,0.00
2013-10-22,52,42,34,41,34,30,92,75,47,30.02,29.75,0,0,5,0.04
2013-10-23,47,40,36,41,36,30,100,84,56,30.04,29.72,4,0,14,0.10
2013-10-24,39,37,32,36,34,30,95,90,81,30.28,30.02,1,0,12,0.02
2013-10-25,49,38,29,33,29,25,93,73,40,30.43,30.23,1,0,9,0.01
2013-10-26,57,43,34,43,34,28,81,70,57,30.24,29.90,5,1,19,0.00
2013-10-27,58,45,34,39,34,32,92,69,40,30.08,30.00,1,0,9,0.00
2013-10-28,62,49,38,40,36,33,89,63,36,30.25,30.03,0,0,5,0.00
2013-10-29,53,48,40,48,42,36,95,79,60,30.30,30.14,0,0,3,0.09
2013-10-30,64,56,50,64,56,48,99,98,95,30.14,29.89,2,0,6,0.18
2013-10-31,65,62,59,64,61,58,100,97,91,29.90,29.24,9,2,22,1.63
2013-11-6,59,52,41,55,49,39,98,90,68,30.08,29.88,7,2,17,0.38
2013-11-7,49,40,31,39,32,26,94,75,42,30.28,30.08,6,1,19,0.00
2013-11-8,53,41,31,34,31,28,94,71,41,30.35,30.15,0,0,6,0.00
2013-11-9,62,51,42,43,37,29,67,58,49,30.14,29.96,8,2,20,0.00
2013-11-10,51,44,37,40,34,31,80,67,50,30.32,30.08,3,0,11,0.00
2013-11-11,51,42,32,43,35,30,94,77,57,30.31,30.06,2,0,8,0.03
2013-11-12,37,31,24,31,26,22,95,81,62,30.64,30.31,1,0,4,0.04
2013-11-13,40,30,20,24,20,18,94,70,42,30.63,30.33,3,0,11,0.00
2013-11-14,54,42,32,25,22,18,67,48,26,30.33,30.07,8,1,17,0.00
2013-11-15,54,47,42,39,29,22,85,51,39,30.08,29.99,4,1,13,0.00
2013-11-16,62,53,43,59,50,39,96,89,75,30.01,29.69,7,1,14,0.07
2013-11-17,68,60,50,64,56,42,98,86,59,29.77,29.35,13,3,25,1.21
2013-11-18,50,45,35,43,35,28,84,70,48,30.19,29.77,7,2,25,0.00
2013-11-19,42,35,29,31,29,26,90,79,62,30.33,30.19,1,0,5,0.00
2013-11-20,50,39,30,36,31,27,87,73,55,30.28,30.13,1,0,9,0.00
2013-11-21,52,48,43,50,44,35,98,90,63,30.22,30.12,0,0,0,0.19
2013-11-22,52,45,34,51,43,31,98,93,84,30.44,30.11,3,0,11,0.07
2013-11-23,34,28,20,31,22,12,94,78,62,30.61,30.39,3,0,15,0.00
2013-11-24,29,21,14,16,12,10,86,69,48,30.77,30.51,1,0,5,0.00
2013-11-25,34,28,21,25,18,13,76,65,50,30.51,30.15,4,0,13,0.00
2013-11-26,36,33,31,30,27,25,89,79,69,30.18,29.95,1,0,9,0.00
2013-11-27,31,24,18,26,16,12,85,74,54,30.30,29.99,4,1,13,0.00
2013-11-28,37,27,18,21,17,12,83,66,44,30.43,30.22,7,1,14,0.00
2013-11-29,40,31,23,25,22,18,85,70,54,30.60,30.43,1,0,4,0.00
2013-11-30,53,40,28,32,27,23,84,61,34,30.46,30.09,6,0,10,0.00
2013-12-1,54,45,39,40,34,28,80,64,51,30.09,29.91,3,0,7,0.00
2013-12-2,48,42,36,42,38,33,91,84,74,29.91,29.71,1,0,3,0.01
2013-12-3,50,44,37,50,43,35,98,95,89,29.79,29.70,0,0,4,0.01
2013-12-4,63,54,46,59,53,45,99,96,85,29.75,29.57,4,0,12,0.00
2013-12-5,62,38,25,58,35,23,94,89,81,30.20,29.66,4,1,17,0.04
2013-12-6,27,24,22,24,22,18,94,91,85,30.44,30.17,0,0,2,0.00
2013-12-7,27,18,10,18,13,8,90,80,59,30.64,30.44,0,0,3,0.07
2013-12-8,30,24,19,29,21,15,97,88,82,30.52,29.98,4,0,10,0.00
2013-12-9,30,26,21,29,22,17,97,87,69,30.24,29.98,6,1,16,0.00
2013-12-10,28,21,14,18,15,9,92,77,57,30.35,30.16,8,2,18,0.01
2013-12-11,31,21,11,23,16,6,98,82,71,30.54,30.29,5,0,13,0.00
2013-12-12,24,14,4,7,2,-3,87,61,34,30.57,30.32,7,1,14,0.00
2013-12-13,37,28,19,31,19,7,96,70,57,30.32,30.07,4,0,12,0.02
2013-12-14,35,33,28,35,32,27,98,97,95,30.07,29.70,3,0,13,0.01
2013-12-15,29,24,20,28,21,15,95,86,76,30.11,29.93,7,2,16,0.00
2013-12-16,30,26,23,29,24,22,96,94,92,30.10,29.99,1,0,2,0.00
2013-12-17,30,27,22,27,25,21,96,93,82,30.15,30.00,6,1,15,0.00
2013-12-18,40,31,20,24,19,15,88,64,37,30.24,29.97,7,1,16,0.11
2013-12-19,53,48,40,48,39,22,82,71,50,29.98,29.82,10,3,18,0.14
2013-12-20,61,57,52,59,53,48,97,89,78,29.82,29.68,10,4,26,1.38
2013-12-21,52,44,39,51,43,39,99,98,96,29.75,29.41,4,0,13,2.73
2013-12-22,49,39,32,49,38,31,99,96,92,30.07,29.33,10,2,20,0.04
2013-12-23,32,26,17,31,23,9,94,86,72,30.43,30.07,5,1,18,0.00
2013-12-24,22,15,8,14,9,3,85,78,65,30.59,30.43,4,1,14,0.00
2013-12-25,31,25,19,27,19,14,85,77,68,30.44,30.17,4,0,11,0.00
2013-12-26,39,32,26,29,26,22,90,76,59,30.36,30.16,6,1,15,0.00
2013-12-27,48,38,32,34,31,25,84,73,59,30.35,30.22,5,1,15,0.00
2013-12-28,54,43,37,36,33,30,85,68,43,30.22,29.93,4,1,12,0.00
2013-12-29,45,37,27,37,32,25,95,80,59,30.07,29.79,6,1,14,0.00
2013-12-30,27,22,19,25,16,12,92,78,66,30.29,30.07,2,0,10,0.00
2013-12-31,33,27,21,23,18,14,76,68,56,30.36,30.17,7,1,17,0.00
2014-1-1,44,34,28,32,27,21,89,76,61,30.24,29.98,1,0,8,0.00
2014-1-2,32,20,9,29,17,3,95,88,75,30.35,29.87,1,0,12,0.00